Flag for Germany Weather past 2 weeks in Ellwangen (Jagst), Baden-Württemberg, Germany

Now
48 °F

Overcast.


Feels Like: 43 °F
Forecast: 46 / 50 °F
Wind: 12 mph from West

Location: Stoetten

Current Time: Dec 18, 2014 at 10:09:28 PM

Latest Report: Dec 18, 2014 at 9:00 PM


Visibility: 47 mi

Pressure: 30.08 "Hg

Humidity: 95%

Dew point: 47 °F

Location of Ellwangen (Jagst)Location

Historic Weather in Ellwangen (Jagst) — Graph

°F

Ellwangen (Jagst) temperature yesterday

Maximum temperature yesterday: 38 °F (at 11:00 PM)
Minimum temperature yesterday: 31 °F (at 8:00 AM)
Average temperature yesterday: 34 °F

Past Weeks' High & Low Weather Summary

 TemperatureHumidityPressure
High49 °F (Dec 13, 3:00 PM)100% (Dec 3, 9:00 PM)30.49 "Hg (Dec 3, 9:00 PM)
Low27 °F (Dec 10, 4:00 AM)63% (Dec 12, 11:00 PM)29.78 "Hg (Dec 12, 8:00 PM)
Average36 °F93%30.08 "Hg
* Reported Dec 3 9:00 PM — Dec 18 9:00 PM, Ellwangen (Jagst), Weather by CustomWeather, © 2014

Note: Actual official high and low records may vary slightly from our data, if they occured in-between our weather recording intervals... More about our weather records

Advertising

Ellwangen (Jagst) weather history for previous 24 hours

 ConditionsComfort  
Time TempWeatherWind HumidityBarometerVisibility
9:00 PM
Dec 18
48 °FOvercast.12 mph95%30.08 "Hg47 mi
8:00 PM48 °FLight rain. Low clouds.12 mph97%30.07 "Hg7 mi
7:00 PM47 °FLight rain. Low clouds.9 mph100%30.07 "Hg1 mi
6:00 PM47 °FRain. Low clouds.10 mph96%30.05 "Hg1 mi
5:00 PM46 °FRain. Low clouds.10 mph99%30.04 "Hg1 mi
4:00 PM46 °FRain. Low clouds.10 mph99%30.03 "Hg1 mi
3:00 PM46 °FRain. Low clouds.10 mph99%30.01 "Hg1 mi
2:00 PM45 °FRain. Low clouds.6 mph100%30.02 "Hg1 mi
1:00 PM44 °FRain. Dense fog.6 mph100%30.03 "Hg0 mi
12:00 PM44 °FRain. Low clouds.7 mph98%30.03 "Hg2 mi
11:00 AM42 °FRain. Low clouds.5 mph98%30.04 "Hg4 mi
10:00 AM41 °FRain. Overcast.5 mph99%30.05 "Hg3 mi
9:00 AM40 °FLight rain. Low clouds.7 mph98%30.05 "Hg11 mi
8:00 AM40 °FOvercast.5 mph98%30.04 "Hg47 mi
7:00 AM39 °FOvercast.6 mph98%30.04 "Hg43 mi
6:00 AM39 °FLow clouds.3 mph100%30.04 "Hg37 mi
5:00 AM39 °FLow clouds.5 mph99%30.04 "Hg3 mi
4:00 AM41 °FLow clouds.6 mph99%30.03 "Hg13 mi
3:00 AM40 °FLow clouds.6 mph100%30.02 "Hg9 mi
2:00 AM40 °FDrizzle. Low clouds.6 mph100%30.01 "Hg0 mi
1:00 AM39 °FDrizzle. Low clouds.5 mph100%30.00 "Hg0 mi
12:00 AM39 °FLight freezing rain. Low clouds.7 mph100%29.98 "Hg0 mi
11:00 PM
Dec 17
38 °FDrizzle. Low clouds.6 mph100%29.96 "Hg0 mi
10:00 PM38 °FLight freezing rain. Low clouds.6 mph100%29.93 "Hg1 mi
Weather by CustomWeather, © 2014

See weather overviewHow to use our weather pages